TimeEST,TemperatureF,Dew PointF,Humidity,Sea Level PressureIn,VisibilityMPH,Wind Direction,Wind SpeedMPH,Gust SpeedMPH,PrecipitationIn,Events,Conditions,WindDirDegrees,DateUTC
12:54 AM,41.0,30.0,65,30.58,10.0,NNE,8.1,-,N/A,,Mostly Cloudy,30,2013-11-05 05:54:00
1:54 AM,41.0,30.0,65,30.58,10.0,North,6.9,-,N/A,,Mostly Cloudy,10,2013-11-05 06:54:00
2:54 AM,41.0,30.9,67,30.57,10.0,NNE,4.6,-,N/A,,Mostly Cloudy,30,2013-11-05 07:54:00
3:54 AM,41.0,30.9,67,30.57,10.0,North,6.9,-,N/A,,Mostly Cloudy,360,2013-11-05 08:54:00
4:54 AM,41.0,32.0,70,30.57,10.0,North,5.8,-,N/A,,Mostly Cloudy,350,2013-11-05 09:54:00
5:54 AM,41.0,30.9,67,30.58,10.0,NNW,5.8,-,N/A,,Mostly Cloudy,340,2013-11-05 10:54:00
6:54 AM,43.0,32.0,65,30.59,10.0,North,5.8,-,N/A,,Mostly Cloudy,360,2013-11-05 11:54:00
7:54 AM,46.0,34.0,63,30.60,10.0,North,8.1,-,N/A,,Overcast,350,2013-11-05 12:54:00
8:54 AM,48.0,36.0,63,30.60,10.0,North,6.9,-,N/A,,Overcast,10,2013-11-05 13:54:00
9:54 AM,52.0,37.9,59,30.61,10.0,North,6.9,-,N/A,,Overcast,350,2013-11-05 14:54:00
10:54 AM,54.0,39.0,57,30.61,10.0,North,6.9,-,N/A,,Overcast,350,2013-11-05 15:54:00
11:54 AM,55.9,39.9,55,30.56,10.0,NNE,6.9,-,N/A,,Mostly Cloudy,30,2013-11-05 16:54:00
12:54 PM,57.0,41.0,55,30.53,10.0,North,5.8,-,N/A,,Mostly Cloudy,350,2013-11-05 17:54:00
1:54 PM,60.1,42.1,51,30.53,10.0,Variable,4.6,-,N/A,,Mostly Cloudy,0,2013-11-05 18:54:00
2:54 PM,60.1,44.1,55,30.52,10.0,Calm,Calm,-,N/A,,Overcast,0,2013-11-05 19:54:00
3:54 PM,61.0,45.0,56,30.52,10.0,North,4.6,-,N/A,,Overcast,10,2013-11-05 20:54:00
4:54 PM,59.0,44.1,58,30.51,10.0,North,6.9,-,N/A,,Overcast,350,2013-11-05 21:54:00
5:54 PM,57.0,43.0,59,30.51,10.0,NNW,3.5,-,N/A,,Overcast,340,2013-11-05 22:54:00
6:54 PM,55.9,44.1,64,30.51,10.0,NNE,4.6,-,N/A,,Overcast,30,2013-11-05 23:54:00
7:54 PM,57.0,44.1,62,30.51,10.0,Calm,Calm,-,N/A,,Overcast,0,2013-11-06 00:54:00
8:54 PM,55.0,46.0,72,30.50,10.0,Calm,Calm,-,N/A,,Overcast,0,2013-11-06 01:54:00
9:54 PM,53.1,46.0,77,30.50,10.0,Calm,Calm,-,N/A,,Overcast,0,2013-11-06 02:54:00
10:54 PM,54.0,46.9,77,30.48,10.0,Calm,Calm,-,N/A,,Overcast,0,2013-11-06 03:54:00
11:54 PM,55.0,48.0,77,30.48,10.0,East,5.8,-,N/A,,Overcast,80,2013-11-06 04:54:00